Showing default

CANX-5, 40056

Orbit data source: Space-Track

CANX-5, 40056 is a payload satellite owned by UTIAS-SFL (CA) in SSO that was launched on Mon, 30 Jun 2014 UTC via a PSLV launch vehicle from the Sirharikota (SRI). Payload-class satellites include a variety of spacecraft equipped with specific instruments for various scientific and technological missions. These include communications satellites like Starlink; space stations such as the ISS; scientific satellites like the Hubble; Earth observation satellites from companies like Planet Labs, Umbra, and HawkEye 360; GPS; miniature CubeSats for education and research; and military/defense satellites.

Loading next visibility...
Identifier
40056, 2014-034D
Orbit
SSO
Last TLE update
13 hours ago
Origin
Manufacturer
UTIAS-SFL
Mission
Operational Amateur Technology
Bus & Motor
GNB, Unknown motor
Mass
7 kg wet, 7 kg dry
Launch date (UTC)
2014-06-30 (11 years ago)
Launch vehicle
PSLV
Launch site
Sirharikota (SRI)
Object type
Payload
Rocket body
Debris
Shape & HBR
Box + 4 Ant, 0.2 m
Radar Cross Section
0.060 m², Medium (>0.1 m² and < 1m²)

Expand to show TLE details & history

TLE from 13 hours ago
0 CANX-5
1 40056U 14034D   25183.60272334  .00000760  00000-0  10719-3 0  9997
2 40056  98.3607  40.2979 0014127  57.0605 303.1962 14.80276062583601
Epoch: 2025-07-02T14:27Z
TLE epoch observation values (Epoch: 2025-07-02T14:27:55.296Z)
Latitude
-0.00005°
Longitude
-97.56396°
Altitude
626.05 km
Speed
7.548 km/s
True Right ascension
02h 41m 11s
True Declination
0° 00' 00"
Sunlit
Object was in daylight at epoch
Visualization orbit readout
Latitude
36.01364°
Longitude
-103.09316°
Altitude
623.989 km
Speed
7.555 km/s
Apparent Right ascension
02h 48m 03s
Apparent Declination
0° 08' 22"
Sunlit
Object is in daylight
Visualization observer readout
Local Sidereal Time
15:21:37
Azimuth
12.911° NNE
Elevation
-49.219°
Doppler factor
1
Orbital elements
Apogee altitude
635.409 km
Perigee altitude
615.621 km
Semi-major axis
7,003.652 km
Eccentricity
0.00141
Inclination
98.3607°
RAAN
40.2979°
Arg. of periapsis
57.0605°
True anomaly
Unknown
Mean anomaly
303.1962°
Eccentric anomaly
Unknown
Mean motion
3.70302 °/min
Orbital period
97.22 mins
BSTAR
0.00010719
Loading maneuver chart data...
Loading SW <> Apogee altitude chart data...
Loading historical data...
Loading historical data...
Loading historical data...
Loading historical data...
Loading historical data...
Loading historical data...
Loading historical data...
Other satellites on launch #34 in the year 2014 (2014-06-30 UTC)

CANX-5 Visibility forecast

Observer location: undefined°, undefined°

Span
Click to sort rows by Start time (UTC) header in descending order
Start Az.
Max El. time (UTC)
Max El. Az.
Max El.
End time (UTC)
End Az.
7 mins2025-07-03 04:00:24.344Z350.361° N2025-07-03 04:03:24.344Z298.528° NW29.16°2025-07-03 04:07:24.344Z226.278° WSW
6 mins2025-07-03 14:56:24.344Z203.862° SW2025-07-03 14:58:24.344Z254.369° W33.627°2025-07-03 15:02:24.344Z331.168° NNW
5 mins2025-07-04 02:45:24.344Z52.971° ENE2025-07-04 02:47:24.344Z99.132° ESE27.917°2025-07-04 02:50:24.344Z155.163° SSE
|